Time,TemperatureF,DewpointF,PressureIn,WindDirection,WindDirectionDegrees,WindSpeedMPH,WindSpeedGustMPH,Humidity,HourlyPrecipIn,Conditions,Clouds,dailyrainin,SoftwareType,DateUTC
2013-01-31 00:00:00,20.5,13.5,30.00,SW,235,0.0,3.0,74,0.00,,---,0.04,VWS V14.01,2013-01-31 06:00:00,
2013-01-31 00:05:00,20.5,13.9,30.00,WSW,244,1.0,3.0,75,0.00,,---,0.00,VWS V14.01,2013-01-31 06:05:00,
2013-01-31 00:10:00,20.5,13.9,30.00,WSW,255,0.0,3.0,75,0.00,,---,0.00,VWS V14.01,2013-01-31 06:10:00,
2013-01-31 00:15:00,20.5,13.9,30.00,WSW,254,0.0,3.0,75,0.00,,---,0.00,VWS V14.01,2013-01-31 06:15:00,
2013-01-31 00:20:00,20.5,13.9,30.00,WSW,254,0.0,3.0,75,0.00,,---,0.00,VWS V14.01,2013-01-31 06:20:00,
2013-01-31 00:25:00,20.5,13.9,30.00,WSW,250,2.0,3.0,75,0.00,,---,0.00,VWS V14.01,2013-01-31 06:25:00,
2013-01-31 00:30:00,20.5,14.1,30.00,SW,231,1.0,3.0,76,0.00,,---,0.00,VWS V14.01,2013-01-31 06:30:00,
2013-01-31 00:35:00,20.5,14.1,30.00,SW,229,2.0,3.0,76,0.00,,---,0.00,VWS V14.01,2013-01-31 06:35:00,
2013-01-31 00:40:00,20.5,14.1,30.00,SW,231,0.0,3.0,76,0.00,,---,0.00,VWS V14.01,2013-01-31 06:40:00,
2013-01-31 00:45:00,20.3,14.0,30.00,SW,234,0.0,3.0,76,0.00,,---,0.00,VWS V14.01,2013-01-31 06:45:00,
2013-01-31 00:50:00,20.3,14.0,30.00,SW,234,0.0,3.0,76,0.00,,---,0.00,VWS V14.01,2013-01-31 06:50:00,
2013-01-31 00:55:00,20.3,14.0,30.00,SW,234,0.0,3.0,76,0.00,,---,0.00,VWS V14.01,2013-01-31 06:55:00,
2013-01-31 01:00:00,20.3,14.0,30.00,SW,234,0.0,3.0,76,0.00,,---,0.00,VWS V14.01,2013-01-31 07:00:00,
2013-01-31 01:05:00,20.3,14.0,30.00,SW,234,0.0,2.0,76,0.00,,---,0.00,VWS V14.01,2013-01-31 07:05:00,
2013-01-31 01:10:00,20.2,13.9,30.00,SW,234,0.0,2.0,76,0.00,,---,0.00,VWS V14.01,2013-01-31 07:10:00,
2013-01-31 01:15:00,20.2,13.9,30.00,SW,234,0.0,2.0,76,0.00,,---,0.00,VWS V14.01,2013-01-31 07:15:00,
2013-01-31 01:20:00,20.2,13.9,30.00,SW,234,0.0,2.0,76,0.00,,---,0.00,VWS V14.01,2013-01-31 07:20:00,
2013-01-31 01:25:00,20.0,13.7,30.00,SW,234,0.0,2.0,76,0.00,,---,0.00,VWS V14.01,2013-01-31 07:25:00,
2013-01-31 01:30:00,19.9,13.9,30.00,SW,234,0.0,2.0,77,0.00,,---,0.00,VWS V14.01,2013-01-31 07:30:00,
2013-01-31 01:35:00,19.7,13.7,30.00,SW,234,0.0,0.0,77,0.00,,---,0.00,VWS V14.01,2013-01-31 07:35:00,
2013-01-31 01:40:00,19.5,13.5,30.00,SW,234,0.0,0.0,77,0.00,,---,0.00,VWS V14.01,2013-01-31 07:40:00,
2013-01-31 01:45:00,19.4,13.4,30.00,SW,234,0.0,0.0,77,0.00,,---,0.00,VWS V14.01,2013-01-31 07:45:00,
2013-01-31 01:50:00,19.4,13.4,30.00,SW,234,0.0,0.0,77,0.00,,---,0.00,VWS V14.01,2013-01-31 07:50:00,
2013-01-31 01:55:00,19.2,13.2,30.00,SW,234,0.0,0.0,77,0.00,,---,0.00,VWS V14.01,2013-01-31 07:55:00,
2013-01-31 02:00:00,19.2,13.2,30.00,SW,234,0.0,0.0,77,0.00,,---,0.00,VWS V14.01,2013-01-31 08:00:00,
2013-01-31 02:05:00,19.1,13.1,30.01,SW,234,0.0,0.0,77,0.00,,---,0.00,VWS V14.01,2013-01-31 08:05:00,
2013-01-31 02:10:00,19.1,13.1,30.01,SW,234,0.0,0.0,77,0.00,,---,0.00,VWS V14.01,2013-01-31 08:10:00,
2013-01-31 02:15:00,19.2,13.5,30.01,SW,234,0.0,0.0,78,0.00,,---,0.00,VWS V14.01,2013-01-31 08:15:00,
2013-01-31 02:20:00,19.2,13.5,30.00,SW,234,0.0,0.0,78,0.00,,---,0.00,VWS V14.01,2013-01-31 08:20:00,
2013-01-31 02:25:00,19.1,13.4,30.00,SW,234,0.0,0.0,78,0.00,,---,0.00,VWS V14.01,2013-01-31 08:25:00,
2013-01-31 02:30:00,19.1,13.4,30.00,SW,234,0.0,0.0,78,0.00,,---,0.00,VWS V14.01,2013-01-31 08:30:00,
2013-01-31 02:35:00,19.1,13.4,30.01,SW,234,0.0,0.0,78,0.00,,---,0.00,VWS V14.01,2013-01-31 08:35:00,
2013-01-31 02:40:00,19.2,13.5,30.01,SW,234,0.0,0.0,78,0.00,,---,0.00,VWS V14.01,2013-01-31 08:40:00,
2013-01-31 02:45:00,19.7,14.0,30.01,SW,234,0.0,0.0,78,0.00,,---,0.00,VWS V14.01,2013-01-31 08:45:00,
2013-01-31 02:50:00,20.0,14.3,30.01,SW,234,0.0,2.0,78,0.00,,---,0.00,VWS V14.01,2013-01-31 08:50:00,
2013-01-31 02:55:00,20.5,15.0,30.01,WSW,254,3.0,4.0,79,0.00,,---,0.00,VWS V14.01,2013-01-31 08:55:00,
2013-01-31 03:00:00,21.1,15.6,30.01,WSW,244,1.0,4.0,79,0.00,,---,0.00,VWS V14.01,2013-01-31 09:00:00,
2013-01-31 03:05:00,21.6,16.1,30.01,WSW,241,3.0,4.0,79,0.00,,---,0.00,VWS V14.01,2013-01-31 09:05:00,
2013-01-31 03:10:00,21.9,16.4,30.01,WSW,251,3.0,5.0,79,0.00,,---,0.00,VWS V14.01,2013-01-31 09:10:00,
2013-01-31 03:15:00,22.2,16.7,30.01,WNW,292,3.0,7.0,79,0.00,,---,0.00,VWS V14.01,2013-01-31 09:15:00,
2013-01-31 03:20:00,22.5,17.0,30.00,WSW,243,2.0,7.0,79,0.00,,---,0.00,VWS V14.01,2013-01-31 09:20:00,
2013-01-31 03:25:00,22.7,17.2,30.00,SW,236,3.0,7.0,79,0.00,,---,0.00,VWS V14.01,2013-01-31 09:25:00,
2013-01-31 03:30:00,22.9,17.4,30.00,SW,227,3.0,7.0,79,0.00,,---,0.00,VWS V14.01,2013-01-31 09:30:00,
2013-01-31 03:35:00,23.0,17.5,30.01,West,265,1.0,4.0,79,0.00,,---,0.00,VWS V14.01,2013-01-31 09:35:00,
2013-01-31 03:40:00,23.2,17.7,30.01,West,264,0.0,4.0,79,0.00,,---,0.00,VWS V14.01,2013-01-31 09:40:00,
2013-01-31 03:45:00,23.2,17.7,30.01,West,264,0.0,4.0,79,0.00,,---,0.00,VWS V14.01,2013-01-31 09:45:00,
2013-01-31 03:50:00,23.3,17.8,30.00,West,264,0.0,4.0,79,0.00,,---,0.00,VWS V14.01,2013-01-31 09:50:00,
2013-01-31 03:55:00,23.5,18.0,30.00,West,264,0.0,4.0,79,0.00,,---,0.00,VWS V14.01,2013-01-31 09:55:00,
2013-01-31 04:00:00,23.6,18.1,30.00,West,264,0.0,4.0,79,0.00,,---,0.00,VWS V14.01,2013-01-31 10:00:00,
2013-01-31 04:05:00,23.8,18.2,30.00,West,264,0.0,3.0,79,0.00,,---,0.00,VWS V14.01,2013-01-31 10:05:00,
2013-01-31 04:10:00,23.9,18.4,30.00,West,264,1.0,3.0,79,0.00,,---,0.00,VWS V14.01,2013-01-31 10:10:00,
2013-01-31 04:15:00,23.9,18.4,30.00,West,263,0.0,3.0,79,0.00,,---,0.00,VWS V14.01,2013-01-31 10:15:00,
2013-01-31 04:20:00,23.9,18.4,29.99,West,263,1.0,3.0,79,0.00,,---,0.00,VWS V14.01,2013-01-31 10:20:00,
2013-01-31 04:25:00,23.9,18.4,29.99,West,263,0.0,3.0,79,0.00,,---,0.00,VWS V14.01,2013-01-31 10:25:00,
2013-01-31 04:30:00,23.9,18.4,29.99,West,260,2.0,3.0,79,0.00,,---,0.00,VWS V14.01,2013-01-31 10:30:00,
2013-01-31 04:35:00,23.9,18.4,29.99,West,263,2.0,4.0,79,0.00,,---,0.00,VWS V14.01,2013-01-31 10:35:00,
2013-01-31 04:40:00,23.9,18.4,29.99,WSW,244,0.0,4.0,79,0.00,,---,0.00,VWS V14.01,2013-01-31 10:40:00,
2013-01-31 04:45:00,23.9,18.4,29.99,WSW,244,0.0,4.0,79,0.00,,---,0.00,VWS V14.01,2013-01-31 10:45:00,
2013-01-31 04:50:00,23.9,18.4,29.98,WSW,244,0.0,4.0,79,0.00,,---,0.00,VWS V14.01,2013-01-31 10:50:00,
2013-01-31 04:55:00,23.9,18.4,29.98,WSW,244,0.0,4.0,79,0.00,,---,0.00,VWS V14.01,2013-01-31 10:55:00,
2013-01-31 05:00:00,23.9,18.4,29.98,WSW,244,0.0,4.0,79,0.00,,---,0.00,VWS V14.01,2013-01-31 11:00:00,
2013-01-31 05:05:00,23.9,18.4,29.99,WSW,244,0.0,2.0,79,0.00,,---,0.00,VWS V14.01,2013-01-31 11:05:00,
2013-01-31 05:10:00,23.9,18.4,29.99,WSW,245,1.0,3.0,79,0.00,,---,0.00,VWS V14.01,2013-01-31 11:10:00,
2013-01-31 05:15:00,23.8,18.2,29.99,WSW,245,0.0,3.0,79,0.00,,---,0.00,VWS V14.01,2013-01-31 11:15:00,
2013-01-31 05:20:00,23.8,18.2,29.99,WSW,245,0.0,3.0,79,0.00,,---,0.00,VWS V14.01,2013-01-31 11:20:00,
2013-01-31 05:25:00,23.8,18.2,29.99,WSW,245,0.0,3.0,79,0.00,,---,0.00,VWS V14.01,2013-01-31 11:25:00,
2013-01-31 05:30:00,23.6,18.1,29.99,WSW,245,0.0,3.0,79,0.00,,---,0.00,VWS V14.01,2013-01-31 11:30:00,
2013-01-31 05:35:00,23.6,18.4,29.99,WSW,245,0.0,0.0,80,0.00,,---,0.00,VWS V14.01,2013-01-31 11:35:00,
2013-01-31 05:42:00,23.6,18.4,29.99,WSW,245,0.0,0.0,80,0.00,,---,0.00,VWS V14.01,2013-01-31 11:42:00,
2013-01-31 05:47:00,23.5,18.2,29.99,WSW,245,0.0,0.0,80,0.00,,---,0.00,VWS V14.01,2013-01-31 11:47:00,
2013-01-31 05:52:00,23.5,18.2,29.99,WSW,245,0.0,0.0,80,0.00,,---,0.00,VWS V14.01,2013-01-31 11:52:00,
2013-01-31 05:57:00,23.5,18.2,29.99,WSW,245,0.0,0.0,80,0.00,,---,0.00,VWS V14.01,2013-01-31 11:57:00,
2013-01-31 06:00:00,23.5,18.2,30.01,WSW,245,0.0,0.0,80,0.00,,---,0.00,VWS V14.01,2013-01-31 12:00:00,
2013-01-31 06:02:00,23.5,18.2,30.01,WSW,249,0.0,0.0,80,0.00,,---,0.00,VWS V14.01,2013-01-31 12:02:00,
2013-01-31 06:07:00,23.5,18.2,30.01,WSW,249,0.0,0.0,80,0.00,,---,0.00,VWS V14.01,2013-01-31 12:07:00,
2013-01-31 06:12:00,23.5,18.2,30.01,WSW,249,0.0,0.0,80,0.00,,---,0.00,VWS V14.01,2013-01-31 12:12:00,
2013-01-31 06:17:00,23.6,18.4,30.01,WSW,249,0.0,0.0,80,0.00,,---,0.00,VWS V14.01,2013-01-31 12:17:00,
2013-01-31 06:22:00,23.6,18.4,30.01,WSW,249,0.0,0.0,80,0.00,,---,0.00,VWS V14.01,2013-01-31 12:22:00,
2013-01-31 06:30:00,23.6,18.4,30.01,WNW,298,0.0,0.0,80,0.00,,---,0.00,VWS V14.01,2013-01-31 12:30:00,
2013-01-31 06:35:00,23.6,18.4,30.02,WNW,297,2.0,3.0,80,0.00,,---,0.00,VWS V14.01,2013-01-31 12:35:00,
2013-01-31 06:40:00,23.8,18.5,30.02,WSW,246,2.0,4.0,80,0.00,,---,0.00,VWS V14.01,2013-01-31 12:40:00,
2013-01-31 06:46:00,23.9,18.6,30.02,NNW,344,5.0,5.0,80,0.00,,---,0.00,VWS V14.01,2013-01-31 12:46:00,
2013-01-31 06:50:00,24.1,18.8,30.04,WNW,302,1.0,7.0,80,0.00,,---,0.00,VWS V14.01,2013-01-31 12:50:00,
2013-01-31 06:55:00,23.9,18.6,30.04,NNW,343,3.0,7.0,80,0.00,,---,0.00,VWS V14.01,2013-01-31 12:55:00,
2013-01-31 07:00:00,23.8,18.5,30.04,NNW,345,5.0,8.0,80,0.00,,---,0.00,VWS V14.01,2013-01-31 13:00:00,
2013-01-31 07:06:00,23.5,18.2,30.04,NW,325,2.0,8.0,80,0.00,,---,0.00,VWS V14.01,2013-01-31 13:06:00,
2013-01-31 07:11:00,23.3,18.1,30.04,NNW,342,6.0,8.0,80,0.00,,---,0.00,VWS V14.01,2013-01-31 13:11:00,
2013-01-31 07:16:00,23.2,18.0,30.04,NNW,337,6.0,8.0,80,0.00,,---,0.00,VWS V14.01,2013-01-31 13:16:00,
2013-01-31 07:21:00,22.9,17.7,30.06,NNW,331,5.0,10.0,80,0.00,,---,0.00,VWS V14.01,2013-01-31 13:21:00,
2013-01-31 07:26:00,22.7,17.5,30.06,North,350,1.0,10.0,80,0.00,,---,0.00,VWS V14.01,2013-01-31 13:26:00,
2013-01-31 07:30:00,22.5,17.3,30.06,NNW,344,2.0,10.0,80,0.00,,---,0.00,VWS V14.01,2013-01-31 13:30:00,
2013-01-31 07:31:00,22.5,17.3,30.06,North,355,5.0,10.0,80,0.00,,---,0.00,VWS V14.01,2013-01-31 13:31:00,
2013-01-31 07:36:00,22.4,17.2,30.06,North,360,6.0,8.0,80,0.00,,---,0.00,VWS V14.01,2013-01-31 13:36:00,
2013-01-31 07:41:00,22.2,16.7,30.06,NW,306,4.0,12.0,79,0.00,,---,0.00,VWS V14.01,2013-01-31 13:41:00,
2013-01-31 07:46:00,22.1,16.6,30.06,North,350,3.0,12.0,79,0.00,,---,0.00,VWS V14.01,2013-01-31 13:46:00,
2013-01-31 07:50:00,22.1,16.6,30.08,NNW,344,6.0,12.0,79,0.00,,---,0.00,VWS V14.01,2013-01-31 13:50:00,
2013-01-31 07:55:00,21.9,16.4,30.08,NE,44,4.0,12.0,79,0.00,,---,0.00,VWS V14.01,2013-01-31 13:55:00,
2013-01-31 08:00:00,21.8,16.3,30.08,North,360,10.0,12.0,79,0.00,,---,0.00,VWS V14.01,2013-01-31 14:00:00,
2013-01-31 08:05:00,21.6,16.1,30.09,North,355,5.0,11.0,79,0.00,,---,0.00,VWS V14.01,2013-01-31 14:05:00,
2013-01-31 08:10:00,21.4,15.6,30.09,North,349,10.0,12.0,78,0.00,,---,0.00,VWS V14.01,2013-01-31 14:10:00,
2013-01-31 08:15:00,21.3,15.5,30.09,North,360,9.0,13.0,78,0.00,,---,0.00,VWS V14.01,2013-01-31 14:15:00,
2013-01-31 08:20:00,21.3,15.5,30.09,NNW,344,3.0,13.0,78,0.00,,---,0.00,VWS V14.01,2013-01-31 14:20:00,
2013-01-31 08:25:00,21.4,15.6,30.09,NNW,346,8.0,13.0,78,0.00,,---,0.00,VWS V14.01,2013-01-31 14:25:00,
2013-01-31 08:30:00,21.3,15.5,30.09,NNW,341,4.0,13.0,78,0.00,,---,0.00,VWS V14.01,2013-01-31 14:30:00,
2013-01-31 08:35:00,21.1,15.3,30.10,NNW,341,3.0,6.0,78,0.00,,---,0.00,VWS V14.01,2013-01-31 14:35:00,
2013-01-31 08:40:00,21.3,15.2,30.10,North,355,4.0,12.0,77,0.00,,---,0.00,VWS V14.01,2013-01-31 14:40:00,
2013-01-31 08:45:00,21.3,15.2,30.10,North,349,7.0,12.0,77,0.00,,---,0.00,VWS V14.01,2013-01-31 14:45:00,
2013-01-31 08:50:00,21.3,14.9,30.11,North,5,4.0,12.0,76,0.00,,---,0.00,VWS V14.01,2013-01-31 14:50:00,
2013-01-31 08:55:00,21.4,15.0,30.11,North,360,7.0,12.0,76,0.00,,---,0.00,VWS V14.01,2013-01-31 14:55:00,
2013-01-31 09:00:00,21.4,15.0,30.11,NNW,331,5.0,12.0,76,0.00,,---,0.00,VWS V14.01,2013-01-31 15:00:00,
2013-01-31 09:05:00,21.1,14.4,30.12,NW,324,3.0,15.0,75,0.00,,---,0.00,VWS V14.01,2013-01-31 15:05:00,
2013-01-31 09:10:00,21.1,14.4,30.12,NNW,340,5.0,15.0,75,0.00,,---,0.00,VWS V14.01,2013-01-31 15:10:00,
2013-01-31 09:15:00,21.1,14.4,30.12,NNE,12,10.0,15.0,75,0.00,,---,0.00,VWS V14.01,2013-01-31 15:15:00,
2013-01-31 09:20:00,21.3,14.6,30.14,NNW,333,6.0,15.0,75,0.00,,---,0.00,VWS V14.01,2013-01-31 15:20:00,
2013-01-31 09:25:00,21.1,14.1,30.14,NNW,330,6.0,15.0,74,0.00,,---,0.00,VWS V14.01,2013-01-31 15:25:00,
2013-01-31 09:30:00,21.0,13.7,30.14,North,360,9.0,15.0,73,0.00,,---,0.00,VWS V14.01,2013-01-31 15:30:00,
2013-01-31 09:35:00,20.6,13.3,30.15,North,5,13.0,17.0,73,0.00,,---,0.00,VWS V14.01,2013-01-31 15:35:00,
2013-01-31 09:40:00,20.5,13.2,30.15,NNW,336,5.0,17.0,73,0.00,,---,0.00,VWS V14.01,2013-01-31 15:40:00,
2013-01-31 09:45:00,20.2,12.6,30.15,NNE,28,8.0,17.0,72,0.00,,---,0.00,VWS V14.01,2013-01-31 15:45:00,
2013-01-31 09:50:00,20.2,12.6,30.15,NW,322,3.0,17.0,72,0.00,,---,0.00,VWS V14.01,2013-01-31 15:50:00,
2013-01-31 09:55:00,20.2,12.6,30.15,West,262,4.0,17.0,72,0.00,,---,0.00,VWS V14.01,2013-01-31 15:55:00,
2013-01-31 10:00:00,20.2,12.6,30.15,NNE,19,3.0,17.0,72,0.00,,---,0.00,VWS V14.01,2013-01-31 16:00:00,
2013-01-31 10:05:00,20.3,12.7,30.17,NNW,336,10.0,10.0,72,0.00,,---,0.00,VWS V14.01,2013-01-31 16:05:00,
2013-01-31 10:10:00,20.6,13.0,30.17,NNW,330,7.0,12.0,72,0.00,,---,0.00,VWS V14.01,2013-01-31 16:10:00,
2013-01-31 10:15:00,20.6,13.0,30.17,North,360,4.0,17.0,72,0.00,,---,0.00,VWS V14.01,2013-01-31 16:15:00,
2013-01-31 10:20:00,20.5,12.6,30.18,NNW,344,7.0,17.0,71,0.00,,---,0.00,VWS V14.01,2013-01-31 16:20:00,
2013-01-31 10:25:00,20.6,13.0,30.18,NW,325,8.0,17.0,72,0.00,,---,0.00,VWS V14.01,2013-01-31 16:25:00,
2013-01-31 10:30:00,20.8,12.9,30.18,NNW,344,4.0,17.0,71,0.00,,---,0.00,VWS V14.01,2013-01-31 16:30:00,
2013-01-31 10:35:00,20.3,12.1,30.19,NNW,346,3.0,11.0,70,0.00,,---,0.00,VWS V14.01,2013-01-31 16:35:00,
2013-01-31 10:40:00,20.2,12.0,30.19,WNW,297,7.0,12.0,70,0.00,,---,0.00,VWS V14.01,2013-01-31 16:40:00,
2013-01-31 10:45:00,19.9,11.4,30.19,NNW,340,6.0,12.0,69,0.00,,---,0.00,VWS V14.01,2013-01-31 16:45:00,
2013-01-31 10:50:00,19.5,11.0,30.20,NW,309,6.0,12.0,69,0.00,,---,0.00,VWS V14.01,2013-01-31 16:50:00,
2013-01-31 10:55:00,19.4,10.9,30.20,SW,228,2.0,12.0,69,0.00,,---,0.00,VWS V14.01,2013-01-31 16:55:00,
2013-01-31 11:00:00,19.4,10.6,30.20,NNW,346,9.0,12.0,68,0.00,,---,0.00,VWS V14.01,2013-01-31 17:00:00,
2013-01-31 11:05:00,19.4,10.6,30.22,WNW,303,12.0,12.0,68,0.00,,---,0.00,VWS V14.01,2013-01-31 17:05:00,
2013-01-31 11:10:00,19.4,10.6,30.22,NNW,337,5.0,15.0,68,0.00,,---,0.00,VWS V14.01,2013-01-31 17:10:00,
2013-01-31 11:15:00,19.5,10.7,30.22,NNW,331,5.0,15.0,68,0.00,,---,0.00,VWS V14.01,2013-01-31 17:15:00,
2013-01-31 11:20:00,19.7,10.9,30.22,NW,315,4.0,15.0,68,0.00,,---,0.00,VWS V14.01,2013-01-31 17:20:00,
2013-01-31 11:25:00,19.5,10.7,30.22,WNW,297,1.0,16.0,68,0.00,,---,0.00,VWS V14.01,2013-01-31 17:25:00,
2013-01-31 11:30:00,19.5,10.3,30.22,North,360,9.0,16.0,67,0.00,,---,0.00,VWS V14.01,2013-01-31 17:30:00,
2013-01-31 11:35:00,19.4,10.2,30.24,NNW,331,9.0,12.0,67,0.00,,---,0.00,VWS V14.01,2013-01-31 17:35:00,
2013-01-31 11:40:00,19.5,10.3,30.24,NNW,345,6.0,13.0,67,0.00,,---,0.00,VWS V14.01,2013-01-31 17:40:00,
2013-01-31 11:45:00,19.5,10.3,30.24,NW,319,6.0,18.0,67,0.00,,---,0.00,VWS V14.01,2013-01-31 17:45:00,
2013-01-31 11:50:00,19.5,10.3,30.24,NNE,19,5.0,19.0,67,0.00,,---,0.00,VWS V14.01,2013-01-31 17:50:00,
2013-01-31 11:55:00,19.1,9.6,30.24,North,5,5.0,19.0,66,0.00,,---,0.00,VWS V14.01,2013-01-31 17:55:00,
2013-01-31 12:00:00,19.1,9.6,30.24,NNE,20,10.0,19.0,66,0.00,,---,0.00,VWS V14.01,2013-01-31 18:00:00,
2013-01-31 12:05:00,19.1,9.6,30.25,North,351,4.0,15.0,66,0.00,,---,0.00,VWS V14.01,2013-01-31 18:05:00,
2013-01-31 12:10:00,19.2,9.7,30.25,North,350,3.0,17.0,66,0.00,,---,0.00,VWS V14.01,2013-01-31 18:10:00,
2013-01-31 12:15:00,19.5,10.0,30.25,ENE,74,7.0,17.0,66,0.00,,---,0.00,VWS V14.01,2013-01-31 18:15:00,
2013-01-31 12:20:00,19.9,10.4,30.25,NW,324,9.0,19.0,66,0.00,,---,0.00,VWS V14.01,2013-01-31 18:20:00,
2013-01-31 12:25:00,19.5,9.7,30.25,NW,316,4.0,20.0,65,0.00,,---,0.00,VWS V14.01,2013-01-31 18:25:00,
2013-01-31 12:30:00,19.2,9.4,30.25,NW,325,11.0,20.0,65,0.00,,---,0.00,VWS V14.01,2013-01-31 18:30:00,
2013-01-31 12:35:00,19.1,9.3,30.26,North,355,10.0,18.0,65,0.00,,---,0.00,VWS V14.01,2013-01-31 18:35:00,
2013-01-31 12:40:00,19.2,9.4,30.26,NNW,335,1.0,18.0,65,0.00,,---,0.00,VWS V14.01,2013-01-31 18:40:00,
2013-01-31 12:45:00,19.1,9.3,30.26,NNW,348,5.0,18.0,65,0.00,,---,0.00,VWS V14.01,2013-01-31 18:45:00,
2013-01-31 12:50:00,18.9,9.1,30.26,NNW,339,6.0,18.0,65,0.00,,---,0.00,VWS V14.01,2013-01-31 18:50:00,
2013-01-31 12:55:00,19.1,9.3,30.26,NNW,346,7.0,19.0,65,0.00,,---,0.00,VWS V14.01,2013-01-31 18:55:00,
2013-01-31 13:00:00,18.9,8.8,30.26,NNW,332,6.0,19.0,64,0.00,,---,0.00,VWS V14.01,2013-01-31 19:00:00,
2013-01-31 13:05:00,18.8,8.6,30.27,North,350,7.0,14.0,64,0.00,,---,0.00,VWS V14.01,2013-01-31 19:05:00,
2013-01-31 13:10:00,19.1,8.9,30.27,NNW,332,3.0,15.0,64,0.00,,---,0.00,VWS V14.01,2013-01-31 19:10:00,
2013-01-31 13:15:00,19.4,9.2,30.27,North,355,9.0,15.0,64,0.00,,---,0.00,VWS V14.01,2013-01-31 19:15:00,
2013-01-31 13:20:00,19.7,9.5,30.27,NW,323,12.0,21.0,64,0.00,,---,0.00,VWS V14.01,2013-01-31 19:20:00,
2013-01-31 13:25:00,19.4,9.2,30.27,NW,304,10.0,21.0,64,0.00,,---,0.00,VWS V14.01,2013-01-31 19:25:00,
2013-01-31 13:30:00,19.4,9.2,30.27,NNW,344,4.0,21.0,64,0.00,,---,0.00,VWS V14.01,2013-01-31 19:30:00,
2013-01-31 13:35:00,19.5,9.3,30.28,West,277,2.0,15.0,64,0.00,,---,0.00,VWS V14.01,2013-01-31 19:35:00,
2013-01-31 13:40:00,19.5,9.3,30.28,NNW,346,5.0,15.0,64,0.00,,---,0.00,VWS V14.01,2013-01-31 19:40:00,
2013-01-31 13:45:00,19.5,9.3,30.28,NW,316,13.0,17.0,64,0.00,,---,0.00,VWS V14.01,2013-01-31 19:45:00,
2013-01-31 13:55:00,19.4,8.9,30.28,NNE,26,6.0,6.0,63,0.00,,---,0.00,VWS V14.01,2013-01-31 19:55:00,
2013-01-31 14:00:00,19.7,9.2,30.28,NNW,336,7.0,16.0,63,0.00,,---,0.00,VWS V14.01,2013-01-31 20:00:00,
2013-01-31 14:05:00,20.0,9.4,30.29,North,5,5.0,14.0,63,0.00,,---,0.00,VWS V14.01,2013-01-31 20:05:00,
2013-01-31 14:10:00,20.2,9.6,30.29,NNW,331,4.0,14.0,63,0.00,,---,0.00,VWS V14.01,2013-01-31 20:10:00,
2013-01-31 14:17:00,20.3,9.7,30.29,NW,314,6.0,6.0,63,0.00,,---,0.00,VWS V14.01,2013-01-31 20:17:00,
2013-01-31 14:22:00,20.0,9.1,30.29,SW,215,4.0,14.0,62,0.00,,---,0.00,VWS V14.01,2013-01-31 20:22:00,
2013-01-31 14:27:00,20.2,9.6,30.29,NE,53,6.0,14.0,63,0.00,,---,0.00,VWS V14.01,2013-01-31 20:27:00,
2013-01-31 14:30:00,20.5,9.9,30.30,NW,306,7.0,14.0,63,0.00,,---,0.00,VWS V14.01,2013-01-31 20:30:00,
2013-01-31 14:32:00,20.5,9.9,30.30,NW,318,6.0,8.0,63,0.00,,---,0.00,VWS V14.01,2013-01-31 20:32:00,
2013-01-31 14:37:00,20.5,9.6,30.30,NNW,333,15.0,17.0,62,0.00,,---,0.00,VWS V14.01,2013-01-31 20:37:00,
2013-01-31 14:42:00,20.2,9.3,30.30,North,355,11.0,20.0,62,0.00,,---,0.00,VWS V14.01,2013-01-31 20:42:00,
2013-01-31 14:47:00,19.9,9.0,30.30,WNW,299,8.0,20.0,62,0.00,,---,0.00,VWS V14.01,2013-01-31 20:47:00,
2013-01-31 14:52:00,19.5,8.6,30.30,WNW,302,7.0,20.0,62,0.00,,---,0.00,VWS V14.01,2013-01-31 20:52:00,
2013-01-31 14:57:00,19.4,8.5,30.30,North,11,6.0,20.0,62,0.00,,---,0.00,VWS V14.01,2013-01-31 20:57:00,
2013-01-31 15:00:00,19.2,8.3,30.31,NNW,338,8.0,20.0,62,0.00,,---,0.00,VWS V14.01,2013-01-31 21:00:00,
2013-01-31 15:30:00,16.1,4.7,30.34,NNW,338,8.0,20.0,60,0.00,,---,0.00,VWS V14.01,2013-01-31 21:30:00,
2013-01-31 16:00:00,13.1,1.5,30.35,NNW,338,7.0,18.0,59,0.00,,---,0.00,VWS V14.01,2013-01-31 22:00:00,
2013-01-31 16:30:00,13.5,2.2,30.37,NNW,338,6.0,19.0,60,0.00,,---,0.00,VWS V14.01,2013-01-31 22:30:00,
2013-01-31 17:00:00,13.8,2.5,30.37,NNW,338,5.0,15.0,60,0.00,,---,0.00,VWS V14.01,2013-01-31 23:00:00,
2013-01-31 17:30:00,13.6,2.3,30.38,NNW,338,5.0,12.0,60,0.00,,---,0.00,VWS V14.01,2013-01-31 23:30:00,
2013-01-31 18:00:00,12.9,1.6,30.40,NNW,338,5.0,15.0,60,0.00,,---,0.00,VWS V14.01,2013-02-01 00:00:00,
2013-01-31 18:30:00,12.1,0.9,30.42,North,0,4.0,11.0,60,0.00,,---,0.00,VWS V14.01,2013-02-01 00:30:00,
2013-01-31 19:00:00,11.6,0.8,30.44,NNW,338,5.0,13.0,61,0.00,,---,0.00,VWS V14.01,2013-02-01 01:00:00,
2013-01-31 19:30:00,11.2,0.4,30.45,NNW,338,3.0,9.0,61,0.00,,---,0.00,VWS V14.01,2013-02-01 01:30:00,
2013-01-31 20:00:00,10.5,-0.3,30.46,NNW,338,4.0,10.0,61,0.00,,---,0.00,VWS V14.01,2013-02-01 02:00:00,
2013-01-31 20:30:00,10.2,-0.6,30.49,North,0,2.0,6.0,61,0.00,,---,0.00,VWS V14.01,2013-02-01 02:30:00,
2013-01-31 21:00:00,9.9,-0.9,30.50,North,0,1.0,7.0,61,0.00,,---,0.00,VWS V14.01,2013-02-01 03:00:00,
2013-01-31 21:30:00,9.5,-0.9,30.52,NNW,338,1.0,4.0,62,0.00,,---,0.00,VWS V14.01,2013-02-01 03:30:00,
2013-01-31 22:00:00,9.0,-1.4,30.52,WSW,248,0.0,3.0,62,0.00,,---,0.00,VWS V14.01,2013-02-01 04:00:00,
2013-01-31 22:30:00,8.6,-1.4,30.52,WSW,248,0.0,1.0,63,0.00,,---,0.00,VWS V14.01,2013-02-01 04:30:00,
2013-01-31 23:00:00,7.9,-1.7,30.52,WSW,248,0.0,0.0,64,0.00,,---,0.00,VWS V14.01,2013-02-01 05:00:00,
2013-01-31 23:30:00,8.4,-1.3,30.52,NNW,338,1.0,4.0,64,0.00,,---,0.00,VWS V14.01,2013-02-01 05:30:00,